PRIVATE WETTERSTATION BILLIGHEIM-ALLFELD                       ZURCK
Wetterdaten: Mittwoch, 02.07.2014
Datum Zeit Temp. A. Temp. A. min Temp. A. max Feuchte A. Luftdruck Regen Wind Richtung Richtung Sonnenschein ET Solar Taupunkt Windchill Windben Empfang
02.07.2014 00:00 12,2 C 12,2 C 12,4 C 81 % 1017,5 hPa 0,0 l/m 0,0 km/h (0 Bft) N 0 0 min 0,025 mm 0 W/m 9,0 C 12,2 C 0,0 km/h (0 Bft) 98 %
02.07.2014 00:10 12,1 C 12,1 C 12,2 C 82 % 1017,4 hPa 0,0 l/m 0,0 km/h (0 Bft) N-NW 337 0 min 0,000 mm 0 W/m 9,1 C 12,1 C 1,6 km/h (1 Bft) 87 %
02.07.2014 00:20 11,9 C 11,9 C 12,1 C 82 % 1017,4 hPa 0,0 l/m 0,0 km/h (0 Bft) N 0 0 min 0,000 mm 0 W/m 8,9 C 11,9 C 0,0 km/h (0 Bft) 98 %
02.07.2014 00:30 11,8 C 11,8 C 11,9 C 83 % 1017,5 hPa 0,0 l/m 0,0 km/h (0 Bft) N-NW 337 0 min 0,000 mm 0 W/m 9,0 C 11,8 C 1,6 km/h (1 Bft) 98 %
02.07.2014 00:40 11,7 C 11,7 C 11,8 C 83 % 1017,5 hPa 0,0 l/m 0,0 km/h (0 Bft) N 0 0 min 0,000 mm 0 W/m 8,9 C 11,7 C 0,0 km/h (0 Bft) 97 %
02.07.2014 00:50 11,6 C 11,6 C 11,6 C 83 % 1017,4 hPa 0,0 l/m 0,0 km/h (0 Bft) N-NW 337 0 min 0,000 mm 0 W/m 8,8 C 11,6 C 3,2 km/h (1 Bft) 97 %
02.07.2014 01:00 11,4 C 11,4 C 11,6 C 83 % 1017,4 hPa 0,0 l/m 0,0 km/h (0 Bft) N-NW 337 0 min 0,025 mm 0 W/m 8,6 C 11,4 C 1,6 km/h (1 Bft) 96 %
02.07.2014 01:10 11,3 C 11,3 C 11,4 C 84 % 1017,4 hPa 0,0 l/m 0,0 km/h (0 Bft) N 0 0 min 0,000 mm 0 W/m 8,7 C 11,3 C 0,0 km/h (0 Bft) 98 %
02.07.2014 01:20 11,2 C 11,2 C 11,3 C 84 % 1017,3 hPa 0,0 l/m 0,0 km/h (0 Bft) N 0 0 min 0,000 mm 0 W/m 8,6 C 11,2 C 0,0 km/h (0 Bft) 97 %
02.07.2014 01:30 11,0 C 11,0 C 11,2 C 84 % 1017,3 hPa 0,0 l/m 0,0 km/h (0 Bft) N 0 0 min 0,000 mm 0 W/m 8,4 C 11,0 C 0,0 km/h (0 Bft) 98 %
02.07.2014 01:40 10,9 C 10,9 C 11,0 C 84 % 1017,3 hPa 0,0 l/m 0,0 km/h (0 Bft) N 0 0 min 0,000 mm 0 W/m 8,3 C 10,9 C 0,0 km/h (0 Bft) 98 %
02.07.2014 01:50 10,8 C 10,8 C 10,9 C 84 % 1017,3 hPa 0,0 l/m 0,0 km/h (0 Bft) N-NW 337 0 min 0,000 mm 0 W/m 8,2 C 10,8 C 1,6 km/h (1 Bft) 99 %
02.07.2014 02:00 10,8 C 10,8 C 10,8 C 85 % 1017,3 hPa 0,0 l/m 0,0 km/h (0 Bft) N 0 0 min 0,000 mm 0 W/m 8,4 C 10,8 C 0,0 km/h (0 Bft) 100 %
02.07.2014 02:10 10,8 C 10,8 C 10,8 C 85 % 1017,3 hPa 0,0 l/m 0,0 km/h (0 Bft) N 0 0 min 0,000 mm 0 W/m 8,4 C 10,8 C 0,0 km/h (0 Bft) 100 %
02.07.2014 02:20 10,8 C 10,8 C 10,8 C 85 % 1017,2 hPa 0,0 l/m 0,0 km/h (0 Bft) N 0 0 min 0,000 mm 0 W/m 8,4 C 10,8 C 0,0 km/h (0 Bft) 100 %
02.07.2014 02:30 10,8 C 10,8 C 10,8 C 85 % 1017,2 hPa 0,0 l/m 0,0 km/h (0 Bft) N-NW 337 0 min 0,000 mm 0 W/m 8,4 C 10,8 C 1,6 km/h (1 Bft) 100 %
02.07.2014 02:40 10,7 C 10,7 C 10,8 C 85 % 1017,2 hPa 0,0 l/m 0,0 km/h (0 Bft) N-NW 337 0 min 0,000 mm 0 W/m 8,3 C 10,7 C 1,6 km/h (1 Bft) 100 %
02.07.2014 02:50 10,6 C 10,6 C 10,7 C 84 % 1017,2 hPa 0,0 l/m 0,0 km/h (0 Bft) N-NW 337 0 min 0,000 mm 0 W/m 8,0 C 10,6 C 1,6 km/h (1 Bft) 100 %
02.07.2014 03:00 10,5 C 10,5 C 10,6 C 84 % 1017,2 hPa 0,0 l/m 0,0 km/h (0 Bft) N-NW 337 0 min 0,000 mm 0 W/m 7,9 C 10,5 C 1,6 km/h (1 Bft) 100 %
02.07.2014 03:10 10,4 C 10,4 C 10,5 C 84 % 1017,2 hPa 0,0 l/m 0,0 km/h (0 Bft) N-NW 337 0 min 0,000 mm 0 W/m 7,8 C 10,4 C 3,2 km/h (1 Bft) 100 %
02.07.2014 03:20 10,4 C 10,4 C 10,4 C 84 % 1017,2 hPa 0,0 l/m 0,0 km/h (0 Bft) N-NW 337 0 min 0,000 mm 0 W/m 7,8 C 10,4 C 4,8 km/h (1 Bft) 100 %
02.07.2014 03:30 10,3 C 10,3 C 10,4 C 84 % 1017,5 hPa 0,0 l/m 0,0 km/h (0 Bft) N-NW 337 0 min 0,000 mm 0 W/m 7,7 C 10,3 C 1,6 km/h (1 Bft) 100 %
02.07.2014 03:40 10,3 C 10,3 C 10,4 C 84 % 1017,4 hPa 0,0 l/m 0,0 km/h (0 Bft) N-NW 337 0 min 0,000 mm 0 W/m 7,7 C 10,3 C 4,8 km/h (1 Bft) 100 %
02.07.2014 03:50 10,3 C 10,3 C 10,3 C 84 % 1017,3 hPa 0,0 l/m 0,0 km/h (0 Bft) N-NW 337 0 min 0,000 mm 0 W/m 7,7 C 10,3 C 1,6 km/h (1 Bft) 100 %
02.07.2014 04:00 10,4 C 10,3 C 10,4 C 85 % 1017,3 hPa 0,0 l/m 0,0 km/h (0 Bft) N-NW 337 0 min 0,000 mm 0 W/m 8,0 C 10,4 C 1,6 km/h (1 Bft) 100 %
02.07.2014 04:10 10,4 C 10,4 C 10,5 C 84 % 1017,3 hPa 0,0 l/m 0,0 km/h (0 Bft) N-NW 337 0 min 0,000 mm 0 W/m 7,8 C 10,4 C 3,2 km/h (1 Bft) 100 %
02.07.2014 04:20 10,6 C 10,4 C 10,6 C 85 % 1017,2 hPa 0,0 l/m 0,0 km/h (0 Bft) N-NW 337 0 min 0,000 mm 0 W/m 8,2 C 10,6 C 1,6 km/h (1 Bft) 100 %
02.07.2014 04:30 10,6 C 10,6 C 10,6 C 85 % 1017,2 hPa 0,0 l/m 0,0 km/h (0 Bft) N-NW 337 0 min 0,000 mm 0 W/m 8,2 C 10,6 C 3,2 km/h (1 Bft) 100 %
02.07.2014 04:40 10,6 C 10,5 C 10,6 C 85 % 1017,1 hPa 0,0 l/m 0,0 km/h (0 Bft) N-NW 337 0 min 0,000 mm 0 W/m 8,2 C 10,6 C 1,6 km/h (1 Bft) 100 %
02.07.2014 04:50 10,5 C 10,5 C 10,6 C 85 % 1017,2 hPa 0,0 l/m 0,0 km/h (0 Bft) N 0 0 min 0,000 mm 0 W/m 8,1 C 10,5 C 0,0 km/h (0 Bft) 100 %
02.07.2014 05:00 10,5 C 10,4 C 10,5 C 85 % 1017,3 hPa 0,0 l/m 0,0 km/h (0 Bft) N-NW 337 0 min 0,000 mm 0 W/m 8,1 C 10,5 C 1,6 km/h (1 Bft) 100 %
02.07.2014 05:10 10,4 C 10,4 C 10,4 C 85 % 1017,2 hPa 0,0 l/m 0,0 km/h (0 Bft) N-NW 337 0 min 0,000 mm 0 W/m 8,0 C 10,4 C 3,2 km/h (1 Bft) 100 %
02.07.2014 05:20 10,3 C 10,3 C 10,4 C 85 % 1017,3 hPa 0,0 l/m 0,0 km/h (0 Bft) N-NW 337 0 min 0,000 mm 0 W/m 7,9 C 10,3 C 1,6 km/h (1 Bft) 100 %
02.07.2014 05:30 10,2 C 10,2 C 10,3 C 85 % 1017,3 hPa 0,0 l/m 0,0 km/h (0 Bft) N-NW 337 0 min 0,000 mm 7 W/m 7,8 C 10,2 C 1,6 km/h (1 Bft) 100 %
02.07.2014 05:40 10,1 C 10,1 C 10,2 C 85 % 1017,4 hPa 0,0 l/m 0,0 km/h (0 Bft) N-NW 337 0 min 0,000 mm 11 W/m 7,7 C 10,1 C 1,6 km/h (1 Bft) 100 %
02.07.2014 05:50 10,1 C 10,1 C 10,1 C 86 % 1017,4 hPa 0,0 l/m 0,0 km/h (0 Bft) N-NW 337 0 min 0,000 mm 18 W/m 7,9 C 10,1 C 3,2 km/h (1 Bft) 100 %
02.07.2014 06:00 10,1 C 10,1 C 10,1 C 86 % 1017,5 hPa 0,0 l/m 0,0 km/h (0 Bft) N 0 0 min 0,000 mm 26 W/m 7,9 C 10,1 C 0,0 km/h (0 Bft) 100 %
02.07.2014 06:10 10,1 C 10,1 C 10,1 C 86 % 1017,6 hPa 0,0 l/m 0,0 km/h (0 Bft) N-NW 337 0 min 0,000 mm 28 W/m 7,9 C 10,1 C 1,6 km/h (1 Bft) 100 %
02.07.2014 06:20 10,2 C 10,1 C 10,2 C 86 % 1017,6 hPa 0,0 l/m 0,0 km/h (0 Bft) N-NW 337 0 min 0,000 mm 28 W/m 8,0 C 10,2 C 1,6 km/h (1 Bft) 100 %
02.07.2014 06:30 10,2 C 10,2 C 10,2 C 86 % 1017,7 hPa 0,0 l/m 0,0 km/h (0 Bft) N 0 0 min 0,000 mm 30 W/m 8,0 C 10,2 C 0,0 km/h (0 Bft) 100 %
02.07.2014 06:40 10,2 C 10,2 C 10,2 C 86 % 1017,7 hPa 0,0 l/m 0,0 km/h (0 Bft) N-NW 337 0 min 0,000 mm 32 W/m 8,0 C 10,2 C 1,6 km/h (1 Bft) 100 %
02.07.2014 06:50 10,2 C 10,2 C 10,2 C 86 % 1017,7 hPa 0,0 l/m 0,0 km/h (0 Bft) N-NW 337 0 min 0,000 mm 40 W/m 8,0 C 10,2 C 3,2 km/h (1 Bft) 100 %
02.07.2014 07:00 10,3 C 10,2 C 10,3 C 86 % 1017,8 hPa 0,0 l/m 0,0 km/h (0 Bft) N-NW 337 0 min 0,025 mm 44 W/m 8,1 C 10,3 C 4,8 km/h (1 Bft) 100 %
02.07.2014 07:10 10,4 C 10,3 C 10,4 C 86 % 1017,9 hPa 0,0 l/m 0,0 km/h (0 Bft) N-NW 337 0 min 0,000 mm 42 W/m 8,2 C 10,4 C 3,2 km/h (1 Bft) 100 %
02.07.2014 07:20 10,6 C 10,4 C 10,6 C 86 % 1017,9 hPa 0,0 l/m 0,0 km/h (0 Bft) N-NW 337 0 min 0,000 mm 46 W/m 8,4 C 10,6 C 4,8 km/h (1 Bft) 100 %
02.07.2014 07:30 10,8 C 10,6 C 10,9 C 86 % 1017,8 hPa 0,0 l/m 0,0 km/h (0 Bft) N-NW 337 0 min 0,000 mm 62 W/m 8,6 C 10,8 C 3,2 km/h (1 Bft) 100 %
02.07.2014 07:40 11,2 C 10,9 C 11,2 C 86 % 1017,9 hPa 0,0 l/m 0,0 km/h (0 Bft) N-NW 337 0 min 0,000 mm 62 W/m 8,9 C 11,2 C 4,8 km/h (1 Bft) 99 %
02.07.2014 07:50 11,4 C 11,2 C 11,4 C 86 % 1018,1 hPa 0,0 l/m 0,0 km/h (0 Bft) N-NW 337 0 min 0,000 mm 62 W/m 9,1 C 11,4 C 3,2 km/h (1 Bft) 98 %
02.07.2014 08:00 11,8 C 11,4 C 11,8 C 86 % 1018,1 hPa 0,0 l/m 3,2 km/h (1 Bft) NW 315 0 min 0,025 mm 69 W/m 9,5 C 11,8 C 8,0 km/h (2 Bft) 97 %
02.07.2014 08:10 12,2 C 11,8 C 12,2 C 84 % 1018,2 hPa 0,0 l/m 0,0 km/h (0 Bft) NW 315 0 min 0,000 mm 70 W/m 9,6 C 12,2 C 6,4 km/h (2 Bft) 98 %
02.07.2014 08:20 12,7 C 12,2 C 12,7 C 82 % 1018,2 hPa 0,0 l/m 0,0 km/h (0 Bft) NW 315 10 min 0,000 mm 304 W/m 9,7 C 12,7 C 4,8 km/h (1 Bft) 97 %
02.07.2014 08:30 13,6 C 12,7 C 13,6 C 82 % 1018,3 hPa 0,0 l/m 0,0 km/h (0 Bft) NW 315 10 min 0,000 mm 378 W/m 10,6 C 13,6 C 4,8 km/h (1 Bft) 98 %
02.07.2014 08:40 14,7 C 13,6 C 14,7 C 76 % 1018,3 hPa 0,0 l/m 0,0 km/h (0 Bft) NW 315 10 min 0,000 mm 404 W/m 10,5 C 14,7 C 1,6 km/h (1 Bft) 97 %
02.07.2014 08:50 15,7 C 14,7 C 15,7 C 73 % 1018,3 hPa 0,0 l/m 0,0 km/h (0 Bft) NW 315 10 min 0,000 mm 452 W/m 10,9 C 15,7 C 3,2 km/h (1 Bft) 97 %
02.07.2014 09:00 16,5 C 15,7 C 16,5 C 74 % 1018,4 hPa 0,0 l/m 0,0 km/h (0 Bft) NW 315 10 min 0,152 mm 499 W/m 11,8 C 16,5 C 1,6 km/h (1 Bft) 98 %
02.07.2014 09:10 17,1 C 16,5 C 17,1 C 69 % 1018,5 hPa 0,0 l/m 0,0 km/h (0 Bft) NW 315 10 min 0,000 mm 520 W/m 11,4 C 17,1 C 8,0 km/h (2 Bft) 97 %
02.07.2014 09:20 17,6 C 17,2 C 17,6 C 66 % 1018,5 hPa 0,0 l/m 0,0 km/h (0 Bft) O-NO 67 10 min 0,000 mm 527 W/m 11,2 C 17,6 C 4,8 km/h (1 Bft) 98 %
02.07.2014 09:30 18,1 C 17,6 C 18,1 C 65 % 1018,5 hPa 0,0 l/m 0,0 km/h (0 Bft) NO 45 10 min 0,000 mm 552 W/m 11,4 C 18,1 C 4,8 km/h (1 Bft) 97 %
02.07.2014 09:40 18,4 C 18,1 C 18,4 C 62 % 1018,4 hPa 0,0 l/m 0,0 km/h (0 Bft) O-NO 67 10 min 0,000 mm 624 W/m 11,0 C 18,4 C 4,8 km/h (1 Bft) 98 %
02.07.2014 09:50 18,9 C 18,4 C 18,9 C 59 % 1018,5 hPa 0,0 l/m 0,0 km/h (0 Bft) NW 315 10 min 0,000 mm 705 W/m 10,7 C 18,9 C 6,4 km/h (2 Bft) 98 %
02.07.2014 10:00 19,1 C 18,9 C 19,1 C 61 % 1018,4 hPa 0,0 l/m 0,0 km/h (0 Bft) S 180 10 min 0,279 mm 545 W/m 11,4 C 19,1 C 4,8 km/h (1 Bft) 97 %
02.07.2014 10:10 19,3 C 19,1 C 19,3 C 60 % 1018,4 hPa 0,0 l/m 0,0 km/h (0 Bft) S-SO 157 10 min 0,000 mm 503 W/m 11,3 C 19,3 C 3,2 km/h (1 Bft) 98 %
02.07.2014 10:20 19,5 C 19,3 C 19,5 C 58 % 1018,5 hPa 0,0 l/m 0,0 km/h (0 Bft) SO 135 10 min 0,000 mm 487 W/m 11,0 C 19,5 C 3,2 km/h (1 Bft) 97 %
02.07.2014 10:30 19,8 C 19,5 C 19,8 C 59 % 1018,7 hPa 0,0 l/m 0,0 km/h (0 Bft) SO 135 10 min 0,000 mm 874 W/m 11,6 C 19,8 C 3,2 km/h (1 Bft) 98 %
02.07.2014 10:40 20,4 C 19,8 C 20,4 C 58 % 1018,6 hPa 0,0 l/m 0,0 km/h (0 Bft) NW 315 10 min 0,000 mm 860 W/m 11,9 C 20,4 C 6,4 km/h (2 Bft) 97 %
02.07.2014 10:50 21,1 C 20,4 C 21,1 C 56 % 1018,5 hPa 0,0 l/m 0,0 km/h (0 Bft) NW 315 10 min 0,000 mm 745 W/m 12,0 C 21,1 C 3,2 km/h (1 Bft) 98 %
02.07.2014 11:00 21,2 C 21,1 C 21,2 C 55 % 1018,5 hPa 0,0 l/m 0,0 km/h (0 Bft) NW 315 10 min 0,356 mm 756 W/m 11,8 C 21,2 C 6,4 km/h (2 Bft) 97 %
02.07.2014 11:10 21,4 C 21,2 C 21,4 C 54 % 1018,7 hPa 0,0 l/m 0,0 km/h (0 Bft) N 360 10 min 0,000 mm 766 W/m 11,7 C 21,4 C 6,4 km/h (2 Bft) 98 %
02.07.2014 11:20 21,7 C 21,4 C 21,7 C 56 % 1018,7 hPa 0,0 l/m 1,6 km/h (1 Bft) NW 315 10 min 0,000 mm 786 W/m 12,5 C 21,7 C 6,4 km/h (2 Bft) 98 %
02.07.2014 11:30 22,1 C 21,7 C 22,1 C 51 % 1018,7 hPa 0,0 l/m 1,6 km/h (1 Bft) NW 315 10 min 0,000 mm 802 W/m 11,5 C 22,1 C 6,4 km/h (2 Bft) 97 %
02.07.2014 11:40 22,6 C 22,1 C 22,6 C 50 % 1018,7 hPa 0,0 l/m 1,6 km/h (1 Bft) NW 315 10 min 0,000 mm 833 W/m 11,6 C 22,6 C 6,4 km/h (2 Bft) 98 %
02.07.2014 11:50 22,9 C 22,6 C 22,9 C 53 % 1018,7 hPa 0,0 l/m 1,6 km/h (1 Bft) O-SO 112 10 min 0,000 mm 940 W/m 12,8 C 22,9 C 8,0 km/h (2 Bft) 97 %
02.07.2014 12:00 22,9 C 22,9 C 23,1 C 45 % 1018,7 hPa 0,0 l/m 1,6 km/h (1 Bft) O-SO 112 10 min 0,457 mm 944 W/m 10,3 C 22,9 C 11,3 km/h (2 Bft) 98 %
02.07.2014 12:10 22,6 C 22,6 C 22,9 C 48 % 1018,7 hPa 0,0 l/m 0,0 km/h (0 Bft) NO 45 10 min 0,000 mm 1063 W/m 11,0 C 22,6 C 1,6 km/h (1 Bft) 97 %
02.07.2014 12:20 22,5 C 22,5 C 22,6 C 51 % 1018,6 hPa 0,0 l/m 3,2 km/h (1 Bft) NW 315 10 min 0,000 mm 362 W/m 11,8 C 22,5 C 9,7 km/h (2 Bft) 98 %
02.07.2014 12:30 22,6 C 22,5 C 22,6 C 45 % 1018,7 hPa 0,0 l/m 4,8 km/h (1 Bft) NW 315 10 min 0,000 mm 962 W/m 10,1 C 22,6 C 9,7 km/h (2 Bft) 98 %
02.07.2014 12:40 22,2 C 22,2 C 22,6 C 46 % 1018,7 hPa 0,0 l/m 1,6 km/h (1 Bft) NW 315 10 min 0,000 mm 309 W/m 10,0 C 22,2 C 9,7 km/h (2 Bft) 97 %
02.07.2014 12:50 21,9 C 21,9 C 22,2 C 47 % 1018,7 hPa 0,0 l/m 1,6 km/h (1 Bft) W 270 10 min 0,000 mm 271 W/m 10,1 C 21,9 C 8,0 km/h (2 Bft) 98 %
02.07.2014 13:00 22,1 C 21,9 C 22,1 C 50 % 1018,7 hPa 0,0 l/m 0,0 km/h (0 Bft) W 270 10 min 0,330 mm 902 W/m 11,2 C 22,1 C 3,2 km/h (1 Bft) 97 %
02.07.2014 13:10 22,4 C 22,1 C 22,4 C 47 % 1018,8 hPa 0,0 l/m 0,0 km/h (0 Bft) W-NW 292 10 min 0,000 mm 1071 W/m 10,5 C 22,4 C 6,4 km/h (2 Bft) 97 %
02.07.2014 13:20 22,8 C 22,4 C 22,8 C 51 % 1018,6 hPa 0,0 l/m 1,6 km/h (1 Bft) W-NW 292 10 min 0,000 mm 645 W/m 12,1 C 22,8 C 9,7 km/h (2 Bft) 97 %
02.07.2014 13:30 22,7 C 22,7 C 22,8 C 49 % 1018,7 hPa 0,0 l/m 0,0 km/h (0 Bft) N-NW 337 10 min 0,000 mm 352 W/m 11,4 C 22,7 C 1,6 km/h (1 Bft) 97 %
02.07.2014 13:40 22,2 C 22,2 C 22,7 C 48 % 1018,8 hPa 0,0 l/m 0,0 km/h (0 Bft) N-NW 337 10 min 0,000 mm 264 W/m 10,7 C 22,2 C 1,6 km/h (1 Bft) 98 %
02.07.2014 13:50 22,0 C 22,0 C 22,2 C 50 % 1018,8 hPa 0,0 l/m 0,0 km/h (0 Bft) N-NW 337 10 min 0,000 mm 420 W/m 11,1 C 22,0 C 4,8 km/h (1 Bft) 97 %
02.07.2014 14:00 22,3 C 22,0 C 22,3 C 51 % 1018,9 hPa 0,0 l/m 1,6 km/h (1 Bft) N-NW 337 10 min 0,279 mm 482 W/m 11,7 C 22,3 C 6,4 km/h (2 Bft) 99 %
02.07.2014 14:10 22,4 C 22,3 C 22,4 C 50 % 1018,8 hPa 0,0 l/m 0,0 km/h (0 Bft) N-NW 337 10 min 0,000 mm 306 W/m 11,5 C 22,4 C 3,2 km/h (1 Bft) 97 %
02.07.2014 14:20 22,8 C 22,4 C 22,8 C 50 % 1018,9 hPa 0,0 l/m 0,0 km/h (0 Bft) N-NW 337 10 min 0,000 mm 944 W/m 11,8 C 22,8 C 4,8 km/h (1 Bft) 98 %
02.07.2014 14:30 23,6 C 22,8 C 23,6 C 48 % 1018,8 hPa 0,0 l/m 1,6 km/h (1 Bft) NW 315 10 min 0,000 mm 942 W/m 11,9 C 23,6 C 6,4 km/h (2 Bft) 99 %
02.07.2014 14:40 24,2 C 23,6 C 24,2 C 46 % 1018,8 hPa 0,0 l/m 3,2 km/h (1 Bft) NW 315 10 min 0,000 mm 988 W/m 11,8 C 24,2 C 16,1 km/h (3 Bft) 100 %
02.07.2014 14:50 24,2 C 24,2 C 24,3 C 45 % 1018,6 hPa 0,0 l/m 3,2 km/h (1 Bft) NW 315 10 min 0,000 mm 969 W/m 11,5 C 24,2 C 14,5 km/h (3 Bft) 100 %
02.07.2014 15:00 23,7 C 23,7 C 24,2 C 47 % 1018,7 hPa 0,0 l/m 8,0 km/h (2 Bft) N-NW 337 10 min 0,483 mm 1049 W/m 11,7 C 23,2 C 19,3 km/h (3 Bft) 100 %
02.07.2014 15:10 23,7 C 23,7 C 23,8 C 46 % 1018,8 hPa 0,0 l/m 1,6 km/h (1 Bft) S-SW 202 10 min 0,000 mm 990 W/m 11,4 C 23,7 C 14,5 km/h (3 Bft) 100 %
02.07.2014 15:20 23,6 C 23,5 C 23,7 C 48 % 1018,9 hPa 0,0 l/m 1,6 km/h (1 Bft) SW 225 10 min 0,000 mm 258 W/m 11,9 C 23,6 C 8,0 km/h (2 Bft) 99 %
02.07.2014 15:30 24,2 C 23,6 C 24,2 C 45 % 1019,0 hPa 0,0 l/m 1,6 km/h (1 Bft) SW 225 10 min 0,000 mm 986 W/m 11,5 C 24,2 C 8,0 km/h (2 Bft) 100 %
02.07.2014 15:40 23,9 C 23,9 C 24,2 C 44 % 1019,0 hPa 0,0 l/m 1,6 km/h (1 Bft) S 180 10 min 0,000 mm 916 W/m 10,9 C 23,9 C 11,3 km/h (2 Bft) 100 %
02.07.2014 15:50 23,9 C 23,8 C 23,9 C 45 % 1018,9 hPa 0,0 l/m 3,2 km/h (1 Bft) W-SW 247 10 min 0,000 mm 831 W/m 11,2 C 23,9 C 14,5 km/h (3 Bft) 100 %
02.07.2014 16:00 24,3 C 23,9 C 24,3 C 45 % 1018,9 hPa 0,0 l/m 1,6 km/h (1 Bft) S-SW 202 10 min 0,432 mm 817 W/m 11,6 C 24,3 C 11,3 km/h (2 Bft) 100 %
02.07.2014 16:10 24,4 C 24,3 C 24,5 C 42 % 1019,0 hPa 0,0 l/m 3,2 km/h (1 Bft) S-SW 202 10 min 0,000 mm 805 W/m 10,6 C 24,4 C 14,5 km/h (3 Bft) 100 %
02.07.2014 16:20 24,6 C 24,4 C 24,6 C 42 % 1018,8 hPa 0,0 l/m 3,2 km/h (1 Bft) S-SW 202 10 min 0,000 mm 784 W/m 10,8 C 24,6 C 14,5 km/h (3 Bft) 100 %
02.07.2014 16:30 24,4 C 24,4 C 24,6 C 41 % 1018,9 hPa 0,0 l/m 3,2 km/h (1 Bft) S-SW 202 10 min 0,000 mm 775 W/m 10,3 C 24,4 C 11,3 km/h (2 Bft) 99 %
02.07.2014 16:40 24,5 C 24,4 C 24,6 C 41 % 1018,8 hPa 0,0 l/m 3,2 km/h (1 Bft) S-SW 202 10 min 0,000 mm 775 W/m 10,4 C 24,5 C 14,5 km/h (3 Bft) 100 %
02.07.2014 16:50 24,2 C 24,2 C 24,5 C 44 % 1018,9 hPa 0,0 l/m 3,2 km/h (1 Bft) NW 315 10 min 0,000 mm 777 W/m 11,2 C 24,2 C 9,7 km/h (2 Bft) 100 %
02.07.2014 17:00 23,7 C 23,7 C 24,2 C 47 % 1018,8 hPa 0,0 l/m 1,6 km/h (1 Bft) NW 315 10 min 0,406 mm 258 W/m 11,7 C 23,7 C 6,4 km/h (2 Bft) 100 %
02.07.2014 17:10 23,6 C 23,6 C 23,8 C 46 % 1018,9 hPa 0,0 l/m 0,0 km/h (0 Bft) N-NW 337 10 min 0,000 mm 670 W/m 11,3 C 23,6 C 6,4 km/h (2 Bft) 100 %
02.07.2014 17:20 23,3 C 23,3 C 23,6 C 49 % 1018,9 hPa 0,0 l/m 1,6 km/h (1 Bft) N-NW 337 10 min 0,000 mm 267 W/m 12,0 C 23,3 C 11,3 km/h (2 Bft) 100 %
02.07.2014 17:30 23,1 C 23,1 C 23,3 C 48 % 1018,9 hPa 0,0 l/m 3,2 km/h (1 Bft) NW 315 10 min 0,000 mm 510 W/m 11,5 C 23,1 C 14,5 km/h (3 Bft) 100 %
02.07.2014 17:40 22,8 C 22,8 C 23,1 C 48 % 1018,9 hPa 0,0 l/m 1,6 km/h (1 Bft) NW 315 10 min 0,000 mm 526 W/m 11,2 C 22,8 C 9,7 km/h (2 Bft) 100 %
02.07.2014 17:50 23,1 C 22,8 C 23,1 C 47 % 1018,9 hPa 0,0 l/m 1,6 km/h (1 Bft) N-NW 337 10 min 0,000 mm 541 W/m 11,2 C 23,1 C 6,4 km/h (2 Bft) 100 %
02.07.2014 18:00 23,3 C 22,8 C 23,3 C 45 % 1018,9 hPa 0,0 l/m 2,1 km/h (1 Bft) W-NW 288 0 min 0,000 mm 72 W/m 10,7 C 23,3 C 6,4 km/h (2 Bft) 100 %
02.07.2014 18:10 22,8 C 22,8 C 23,3 C 48 % 1019,0 hPa 0,0 l/m 2,8 km/h (1 Bft) N-NW 332 0 min 0,180 mm 114 W/m 11,2 C 22,8 C 11,3 km/h (2 Bft) 100 %
02.07.2014 18:20 23,1 C 22,8 C 23,1 C 45 % 1019,0 hPa 0,0 l/m 1,6 km/h (1 Bft) NW 323 10 min 0,000 mm 360 W/m 10,5 C 23,1 C 9,7 km/h (2 Bft) 100 %
02.07.2014 18:30 23,4 C 23,1 C 23,4 C 45 % 1019,0 hPa 0,0 l/m 2,7 km/h (1 Bft) W-NW 299 0 min 0,000 mm 102 W/m 10,8 C 23,4 C 11,3 km/h (2 Bft) 100 %
02.07.2014 18:40 23,7 C 23,4 C 23,7 C 43 % 1019,2 hPa 0,0 l/m 5,2 km/h (1 Bft) W-NW 298 0 min 0,000 mm 54 W/m 10,4 C 23,7 C 14,5 km/h (3 Bft) 100 %
02.07.2014 18:50 23,1 C 23,1 C 23,7 C 47 % 1019,3 hPa 0,0 l/m 3,0 km/h (1 Bft) N-NW 339 0 min 0,000 mm 60 W/m 11,2 C 23,1 C 11,3 km/h (2 Bft) 100 %
02.07.2014 19:00 22,7 C 22,7 C 23,1 C 47 % 1019,4 hPa 0,0 l/m 1,8 km/h (1 Bft) NW 312 10 min 0,153 mm 283 W/m 10,8 C 22,7 C 9,7 km/h (2 Bft) 100 %
02.07.2014 19:10 22,6 C 22,6 C 22,7 C 47 % 1019,5 hPa 0,0 l/m 0,4 km/h (0 Bft) NW 315 10 min 0,000 mm 260 W/m 10,7 C 22,6 C 3,2 km/h (1 Bft) 100 %
02.07.2014 19:20 22,6 C 22,5 C 22,6 C 48 % 1019,6 hPa 0,0 l/m 0,6 km/h (0 Bft) NW 317 10 min 0,000 mm 227 W/m 11,0 C 22,6 C 8,0 km/h (2 Bft) 100 %
02.07.2014 19:30 22,6 C 22,5 C 22,6 C 49 % 1019,6 hPa 0,0 l/m 0,3 km/h (0 Bft) NW 317 10 min 0,000 mm 216 W/m 11,3 C 22,6 C 6,4 km/h (2 Bft) 100 %
02.07.2014 19:40 22,5 C 22,5 C 22,6 C 51 % 1019,8 hPa 0,0 l/m 0,6 km/h (0 Bft) NW 317 0 min 0,000 mm 121 W/m 11,8 C 22,5 C 3,2 km/h (1 Bft) 100 %
02.07.2014 19:50 22,2 C 22,2 C 22,5 C 54 % 1019,8 hPa 0,0 l/m 0,2 km/h (0 Bft) NW 317 0 min 0,000 mm 46 W/m 12,4 C 22,2 C 4,8 km/h (1 Bft) 100 %
02.07.2014 20:00 21,9 C 21,9 C 22,2 C 55 % 1019,8 hPa 0,0 l/m 0,0 km/h (0 Bft) NW 317 0 min 0,101 mm 40 W/m 12,4 C 21,9 C 1,6 km/h (1 Bft) 99 %
02.07.2014 20:10 21,6 C 21,6 C 21,9 C 57 % 1020,0 hPa 0,0 l/m 0,0 km/h (0 Bft) NW 317 0 min 0,000 mm 37 W/m 12,7 C 21,6 C 0,0 km/h (0 Bft) 100 %
02.07.2014 20:20 21,3 C 21,3 C 21,6 C 58 % 1020,1 hPa 0,0 l/m 0,0 km/h (0 Bft) NW 317 0 min 0,000 mm 35 W/m 12,7 C 21,3 C 0,0 km/h (0 Bft) 100 %
02.07.2014 20:30 20,9 C 20,9 C 21,3 C 57 % 1020,1 hPa 0,0 l/m 0,0 km/h (0 Bft) NW 317 0 min 0,000 mm 30 W/m 12,1 C 20,9 C 1,6 km/h (1 Bft) 100 %
02.07.2014 20:40 20,6 C 20,6 C 20,9 C 59 % 1020,2 hPa 0,0 l/m 0,0 km/h (0 Bft) NW 317 0 min 0,000 mm 26 W/m 12,3 C 20,6 C 0,0 km/h (0 Bft) 100 %
02.07.2014 20:50 20,2 C 20,2 C 20,6 C 57 % 1020,4 hPa 0,0 l/m 0,0 km/h (0 Bft) NW 317 0 min 0,000 mm 23 W/m 11,4 C 20,2 C 0,0 km/h (0 Bft) 100 %
02.07.2014 21:00 19,8 C 19,8 C 20,2 C 59 % 1020,4 hPa 0,0 l/m 0,0 km/h (0 Bft) NW 317 0 min 0,026 mm 18 W/m 11,6 C 19,8 C 0,0 km/h (0 Bft) 100 %
02.07.2014 21:10 19,4 C 19,4 C 19,8 C 62 % 1020,4 hPa 0,0 l/m 0,0 km/h (0 Bft) N 0 0 min 0,000 mm 18 W/m 11,9 C 19,4 C 0,0 km/h (0 Bft) 100 %
02.07.2014 21:20 18,9 C 18,9 C 19,4 C 61 % 1020,5 hPa 0,0 l/m 0,0 km/h (0 Bft) N 0 0 min 0,000 mm 11 W/m 11,2 C 18,9 C 0,0 km/h (0 Bft) 100 %
02.07.2014 21:30 18,4 C 18,4 C 18,9 C 61 % 1020,6 hPa 0,0 l/m 0,0 km/h (0 Bft) N 0 0 min 0,000 mm 0 W/m 10,7 C 18,4 C 0,0 km/h (0 Bft) 100 %
02.07.2014 21:40 17,9 C 17,9 C 18,4 C 62 % 1020,8 hPa 0,0 l/m 0,0 km/h (0 Bft) N 0 0 min 0,000 mm 0 W/m 10,5 C 17,9 C 0,0 km/h (0 Bft) 99 %
02.07.2014 21:50 17,4 C 17,4 C 17,9 C 62 % 1021,1 hPa 0,0 l/m 0,0 km/h (0 Bft) N 0 0 min 0,000 mm 0 W/m 10,0 C 17,4 C 0,0 km/h (0 Bft) 100 %
02.07.2014 22:00 16,9 C 16,9 C 17,4 C 62 % 1021,2 hPa 0,0 l/m 0,0 km/h (0 Bft) NW 315 0 min 0,000 mm 0 W/m 9,6 C 16,9 C 1,6 km/h (1 Bft) 100 %
02.07.2014 22:10 16,4 C 16,4 C 16,9 C 63 % 1021,3 hPa 0,0 l/m 0,0 km/h (0 Bft) NW 315 0 min 0,000 mm 0 W/m 9,3 C 16,4 C 3,2 km/h (1 Bft) 100 %
02.07.2014 22:20 16,3 C 16,3 C 16,4 C 61 % 1021,3 hPa 0,0 l/m 0,0 km/h (0 Bft) NW 315 0 min 0,000 mm 0 W/m 8,8 C 16,3 C 1,6 km/h (1 Bft) 100 %
02.07.2014 22:30 16,3 C 16,3 C 16,3 C 63 % 1021,5 hPa 0,0 l/m 0,0 km/h (0 Bft) NW 315 0 min 0,000 mm 0 W/m 9,2 C 16,3 C 1,6 km/h (1 Bft) 100 %
02.07.2014 22:40 16,1 C 16,1 C 16,3 C 65 % 1021,6 hPa 0,0 l/m 0,0 km/h (0 Bft) NW 315 0 min 0,000 mm 0 W/m 9,5 C 16,1 C 1,6 km/h (1 Bft) 99 %
02.07.2014 22:50 15,7 C 15,7 C 16,1 C 67 % 1021,7 hPa 0,0 l/m 0,0 km/h (0 Bft) NW 315 0 min 0,000 mm 0 W/m 9,6 C 15,7 C 1,6 km/h (1 Bft) 100 %
02.07.2014 23:00 15,4 C 15,4 C 15,7 C 70 % 1021,7 hPa 0,0 l/m 0,0 km/h (0 Bft) N 0 0 min 0,025 mm 0 W/m 10,0 C 15,4 C 0,0 km/h (0 Bft) 100 %
02.07.2014 23:10 15,1 C 15,1 C 15,3 C 70 % 1021,8 hPa 0,0 l/m 0,0 km/h (0 Bft) N 0 0 min 0,000 mm 0 W/m 9,7 C 15,1 C 0,0 km/h (0 Bft) 100 %
02.07.2014 23:20 14,9 C 14,9 C 15,1 C 72 % 1021,9 hPa 0,0 l/m 0,0 km/h (0 Bft) N 0 0 min 0,000 mm 0 W/m 9,9 C 14,9 C 0,0 km/h (0 Bft) 100 %
02.07.2014 23:30 14,7 C 14,7 C 14,9 C 74 % 1022,0 hPa 0,0 l/m 0,0 km/h (0 Bft) N 0 0 min 0,000 mm 0 W/m 10,1 C 14,7 C 0,0 km/h (0 Bft) 99 %
02.07.2014 23:40 14,5 C 14,5 C 14,7 C 75 % 1022,1 hPa 0,0 l/m 0,0 km/h (0 Bft) N 0 0 min 0,000 mm 0 W/m 10,1 C 14,5 C 0,0 km/h (0 Bft) 99 %
02.07.2014 23:50 14,3 C 14,3 C 14,5 C 76 % 1022,3 hPa 0,0 l/m 0,0 km/h (0 Bft) N 0 0 min 0,000 mm 0 W/m 10,1 C 14,3 C 0,0 km/h (0 Bft) 97 %
_ Min-Zeit 05:40 05:40 05:50 16:30 04:40 - 00:00 - - - - - 05:40 05:40 00:00 00:10
Minimum _ 10,1 C 10,1 C 10,1 C 41 % 1017,1 hPa - 0,0 km/h (0 Bft) - - - - - 7,7 C 10,1 C 0,0 km/h (0 Bft) 87 %
_ Max-Zeit 16:20 16:20 16:20 05:50 23:50 00:00 15:00 - - 08:20 15:00 13:10 11:50 16:20 15:00 02:20
Maximum _ 24,6 C 24,4 C 24,6 C 86 % 1022,3 hPa 0,0 l/m 8,0 km/h
N-NW (2 Bft)
- - 10 min 0,483 mm 1071 W/m 12,8 C 24,6 C 19,3 km/h
O (3 Bft)
100 %
Durchschnitt _ 17,3 C 17,2 C 17,4 C 65 % 1018,7 hPa #0,0 l/m 0,7 km/h (0 Bft) NW - #10:30 h #3,759 mm 431 W/m 10,1 C 17,3 C 4,6 km/h (1 Bft) 99 %
PRIVATE WETTERSTATION BILLIGHEIM-ALLFELD - www.neckar-odenwald-wetter.de - Holger Sonntag